Retour au catalogue

USA 453

ActifMilitaireVLEO
NORAD 62352·PAYLOAD·🇺🇸 United States

Lancé Dec 17, 2024 depuis Vandenberg Space Force Base

Loading…

Prochains Passages (prochaines 24 heures)

TLE

PériméSource: Mike McCants

Époque: Aug 15, 2026, 20:39 UTC

1 62352U 24243N   26227.86103591 0.00000000  00000-0  00000-0 0    08
2 62352  70.0200 132.1594 0004000  46.1502 313.8498 14.96713456    08

Suivez USA 453 en temps réel avec AllMySat

Download on the App Store